{"data":{"norad_id":66286,"intl_designator":"2025-247X","name":"STARLINK-35783","alt_names":[],"object_type":"PAYLOAD","status":"ACTIVE","operator":null,"country":"US","launch_date":"2025-10-31","launch_site_code":"AFWTR","launch_vehicle":null,"mission":null,"orbit_class":"UNKNOWN","rcs_meters":null,"size_class":null,"mass_kg":null,"dimensions":null,"purposes":["comms"],"wikipedia_slug":null,"has_3d_model":false,"image_url":null,"decayed_at":null,"tle_current":{"epoch":"2026-09-20T22:26:56.227200Z","epoch_age_seconds":59051,"freshness":"FRESH","line1":"1 66286U 25247X   26263.93537300  .00018575  00000+0  55953-3 0  9992","line2":"2 66286  53.1602   1.9200 0000885  86.7120 273.3984 15.34399438 50969","mean_motion":15.34399438,"eccentricity":8.85e-5,"inclination_deg":53.1602,"raan_deg":1.92,"arg_perigee_deg":86.712,"mean_anomaly_deg":273.3984,"bstar":0.00055953,"rev_number":5096,"period_min":93.847792454679,"perigee_km":462.09949608096,"apogee_km":463.31032509914,"semimajor_km":6840.8419105901,"source":"CELESTRAK","updated_at":"2026-09-21T09:00:35.871163Z"}}}